#timestamp,LO_Frequency,Hit,StdDev 
1686236415.3,286047011.3,N
1686236435.1,286047009.7,N
1686236455.9,286047009.3,N
1686236475.7,286047015.6,N
1686236495.5,286047014.1,N
1686236515.4,286047017.4,N
1686236535.2,286047022.0,N
1686236555.0,286047018.0,N
1686236556.0,286047018.0,N
1686236575.8,286047016.8,N
1686236595.6,286047018.7,N
1686236615.5,286047015.7,N
1686236635.3,286047017.8,N
1686236655.1,286047020.6,Y
1686236675.9,286047005.4,P
1686236695.7,286047010.1,N
1686236715.6,286047010.7,N
1686236735.4,286047013.4,Y
1686236755.2,286047002.8,P
1686236775.1,286047003.7,N
1686236776.0,286047003.7,N
1686236795.8,286047002.9,N
1686236815.6,286047007.6,N
1686236835.5,286047001.4,N
1686236855.3,286047001.1,N
1686236875.2,286046997.2,N
1686236895.9,286046998.7,N
1686236915.7,286047003.4,N
1686236935.6,286047010.4,N
1686236955.4,286047013.8,Y
1686236975.2,286047004.9,P
1686236995.1,286047007.6,P
1686236996.0,286047007.6,P
1686237015.8,286047006.8,Y
1686237035.7,286047002.4,P
1686237055.5,286047002.4,N
1686237075.3,286047005.2,P
1686237095.2,286047007.1,Y
1686237115.0,286047005.9,P
1686237115.9,286047005.9,P
1686237135.7,286047006.4,P
1686237155.6,286047007.3,Y
1686237175.4,286047000.4,P
1686237195.3,286047002.1,N
1686237215.1,286047001.3,N
1686237235.8,286047000.8,N
1686237255.7,286047003.8,N
1686237275.5,286047005.4,N
1686237295.4,286047004.8,N
1686237315.2,286047007.1,Y
1686237335.0,286046999.9,P
1686237335.9,286046999.9,N
1686237355.8,286047004.3,N
1686237375.6,286047006.5,Y
1686237395.4,286047007.5,P
1686237415.3,286047004.4,N
1686237435.1,286047005.0,N
1686237455.9,286047005.8,N
1686237475.7,286047007.2,Y
1686237495.5,286046997.5,P
1686237515.4,286047002.0,N
1686237535.2,286047004.3,N
1686237555.0,286047001.7,N
1686237556.0,286047001.7,N
1686237575.8,286047000.2,N
1686237595.6,286047003.5,N
1686237615.5,286047001.3,N
1686237635.3,286047004.3,N
1686237655.1,286047005.2,N
1686237675.9,286047003.7,N
1686237695.7,286047005.7,N
1686237715.6,286047008.0,Y
1686237735.4,286047005.9,P
1686237755.2,286046998.7,N
1686237775.1,286046996.1,N
1686237776.0,286046996.1,N
1686237795.8,286047000.8,N
1686237815.6,286047000.7,N
1686237835.5,286046998.5,N
1686237855.3,286046997.3,N
1686237875.2,286046997.6,N
1686237895.0,286046993.3,N
1686237895.9,286046993.3,N
1686237915.7,286046992.2,N
1686237935.6,286046994.8,N
1686237955.4,286046996.1,N
1686237975.3,286047000.8,N
1686237995.1,286047002.8,N
1686237996.0,286047002.8,N
1686238015.8,286047002.3,N
1686238035.7,286047002.8,N
1686238055.5,286047007.6,N
1686238075.3,286047006.0,N
1686238095.2,286047008.1,N
1686238115.0,286047010.7,N
1686238115.9,286047010.7,N
1686238135.8,286047006.3,N
1686238155.6,286047005.5,N
1686238175.4,286047006.4,N
1686238195.3,286047008.3,N
1686238215.1,286047010.4,N
1686238235.8,286047011.1,N
1686238255.7,286047010.1,N
1686238275.5,286047010.6,N
1686238295.4,286047004.9,N
1686238315.2,286047009.9,N
1686238335.0,286047010.3,N
1686238335.9,286047010.3,N
1686238355.8,286047008.7,N
1686238375.6,286047011.5,N
1686238395.4,286047015.3,N
1686238415.3,286047015.0,N
1686238435.1,286047013.0,N
1686238455.9,286047009.4,N
1686238475.7,286047008.2,N
1686238495.6,286047005.2,N
1686238515.4,286047008.5,N
1686238535.2,286047003.1,N
1686238555.1,286047005.1,N
1686238556.0,286047005.1,N
1686238575.8,286047005.4,N
1686238595.7,286047004.8,N
1686238615.5,286047007.4,N
1686238635.3,286047006.4,N
1686238655.2,286047011.9,Y
1686238675.0,286046998.7,P
1686238675.9,286046998.7,N
1686238695.8,286046998.8,N
1686238715.6,286046999.6,N
1686238735.4,286046998.9,N
1686238755.3,286046997.1,N
1686238775.1,286047002.4,N
1686238795.8,286047000.6,N
1686238815.7,286046998.7,N
1686238835.5,286047000.8,N
1686238855.4,286046995.0,N
1686238875.2,286046996.3,N
1686238895.0,286046996.1,N
1686238895.9,286046996.1,N
1686238915.8,286047003.9,N
1686238935.6,286047000.4,N
1686238955.5,286047001.5,N
1686238975.3,286047006.8,N
1686238995.1,286047006.2,N
1686239015.9,286047008.7,N
1686239035.7,286047006.7,N
1686239055.5,286047011.8,N
1686239075.4,286047008.1,N
1686239095.2,286047006.6,N
1686239115.1,286047005.1,N
1686239135.1,286047009.5,N
1686239155.9,286047011.0,N
1686239175.7,286047013.2,N
1686239195.5,286047009.5,N
1686239215.4,286047010.0,N
1686239235.3,286047009.6,N
1686239255.1,286047013.2,N
1686239275.9,286047010.4,N
1686239295.7,286047011.9,N
1686239315.5,286047012.2,N
1686239335.4,286047009.5,N
1686239355.2,286047013.2,N
1686239375.0,286047015.9,N
1686239375.9,286047015.9,N
1686239395.8,286047014.3,N
1686239415.6,286047018.2,Y
1686239435.5,286047013.5,P
1686239455.3,286047011.0,P
1686239475.1,286047008.4,P
1686239495.9,286047010.6,Y
1686239515.7,286046999.1,P
1686239535.5,286046997.2,N
1686239555.4,286046995.9,N
1686239575.2,286046991.7,N
1686239595.1,286046992.7,N
1686239596.0,286046992.7,N
1686239615.8,286046997.1,N
1686239635.6,286046996.6,N
1686239655.5,286046999.5,N
1686239675.3,286047000.5,N
1686239695.1,286047003.1,N
1686239715.9,286047004.6,N
1686239735.7,286047007.6,N
1686239755.6,286047004.6,N
1686239775.4,286047006.1,N
1686239795.2,286047008.0,N
1686239815.1,286047004.9,N
1686239816.0,286047004.9,N
1686239835.8,286047003.7,N
1686239855.7,286047011.2,N
1686239875.5,286047012.9,N
1686239895.3,286047016.0,N
1686239915.2,286047012.6,N
1686239935.9,286047014.2,N
1686239955.7,286047011.2,N
1686239975.6,286047018.2,N
1686239995.4,286047020.1,N
